Year,Month,Day,Hour,Minute,Value (Times are PST for temperature in C)
2015,07,18,01,16,12.30
2015,07,18,01,17,12.30
2015,07,18,01,18,12.30
2015,07,18,01,19,12.30
2015,07,18,01,20,12.30
2015,07,18,01,21,12.30
2015,07,18,01,22,12.30
2015,07,18,01,23,12.30
2015,07,18,01,24,12.30
2015,07,18,01,25,12.30
2015,07,18,01,26,12.30
2015,07,18,01,27,12.30
2015,07,18,01,28,12.30
2015,07,18,01,29,12.30
2015,07,18,01,30,12.30
2015,07,18,01,31,12.30
2015,07,18,01,32,12.30
2015,07,18,01,33,12.30
2015,07,18,01,34,12.30
2015,07,18,01,35,12.30
2015,07,18,01,36,12.30
2015,07,18,01,37,12.30
2015,07,18,01,38,12.30
2015,07,18,01,39,12.30
2015,07,18,01,40,12.30
2015,07,18,01,41,12.30
2015,07,18,01,42,12.30
2015,07,18,01,43,12.30
2015,07,18,01,44,12.30
2015,07,18,01,45,12.30
2015,07,18,01,46,12.30
2015,07,18,01,47,12.30
2015,07,18,01,48,12.30
2015,07,18,01,49,12.30
2015,07,18,01,50,12.30
2015,07,18,01,51,12.30
2015,07,18,01,52,12.30
2015,07,18,01,53,12.30
2015,07,18,01,54,12.30
2015,07,18,01,55,12.30
2015,07,18,01,56,12.30
2015,07,18,01,57,12.30
2015,07,18,01,58,12.30
2015,07,18,01,59,12.30
2015,07,18,02,00,12.30
2015,07,18,02,01,12.30
2015,07,18,02,02,12.30
2015,07,18,02,03,12.30
2015,07,18,02,04,12.30
2015,07,18,02,05,12.30
2015,07,18,02,06,12.30
2015,07,18,02,07,12.30
2015,07,18,02,08,12.30
2015,07,18,02,09,12.30
2015,07,18,02,10,12.30
2015,07,18,02,11,12.30
2015,07,18,02,12,12.30
2015,07,18,02,13,12.30
2015,07,18,02,14,12.30
2015,07,18,02,15,12.30
2015,07,18,02,16,12.00
2015,07,18,02,17,12.00
2015,07,18,02,18,12.00
2015,07,18,02,19,12.00
2015,07,18,02,20,12.00
2015,07,18,02,21,12.00
2015,07,18,02,22,12.00
2015,07,18,02,23,12.00
2015,07,18,02,24,12.00
2015,07,18,02,25,12.00
2015,07,18,02,26,12.00
2015,07,18,02,27,12.00
2015,07,18,02,28,12.00
2015,07,18,02,29,12.00
2015,07,18,02,30,12.00
2015,07,18,02,31,12.00
2015,07,18,02,32,12.00
2015,07,18,02,33,12.00
2015,07,18,02,34,12.00
2015,07,18,02,35,12.00
2015,07,18,02,36,12.00
2015,07,18,02,37,12.00
2015,07,18,02,38,12.00
2015,07,18,02,39,12.00
2015,07,18,02,40,12.00
2015,07,18,02,41,12.00
2015,07,18,02,42,12.00
2015,07,18,02,43,12.00
2015,07,18,02,44,12.00
2015,07,18,02,45,12.00
2015,07,18,02,46,12.40
2015,07,18,02,47,12.40
2015,07,18,02,48,12.40
2015,07,18,02,49,12.40
2015,07,18,02,50,12.40
2015,07,18,02,51,12.40
2015,07,18,02,52,12.40
2015,07,18,02,53,12.40
2015,07,18,02,54,12.40
2015,07,18,02,55,12.40
2015,07,18,02,56,12.40
2015,07,18,02,57,12.40
2015,07,18,02,58,12.40
2015,07,18,02,59,12.40
2015,07,18,03,00,12.40
2015,07,18,03,01,12.40
2015,07,18,03,02,12.40
2015,07,18,03,03,12.40
2015,07,18,03,04,12.40
2015,07,18,03,05,12.40
2015,07,18,03,06,12.40
2015,07,18,03,07,12.40
2015,07,18,03,08,12.40
2015,07,18,03,09,12.40
2015,07,18,03,10,12.40
2015,07,18,03,11,12.40
2015,07,18,03,12,12.40
2015,07,18,03,13,12.40
2015,07,18,03,14,12.40
2015,07,18,03,15,12.40
2015,07,18,03,16,12.70
2015,07,18,03,17,12.70
2015,07,18,03,18,12.70
2015,07,18,03,19,12.70
2015,07,18,03,20,12.70
2015,07,18,03,21,12.70
2015,07,18,03,22,12.70
2015,07,18,03,23,12.70
2015,07,18,03,24,12.70
2015,07,18,03,25,12.70
2015,07,18,03,26,12.70
2015,07,18,03,27,12.70
2015,07,18,03,28,12.70
2015,07,18,03,29,12.70
2015,07,18,03,30,12.70
2015,07,18,03,31,12.70
2015,07,18,03,32,12.70
2015,07,18,03,33,12.70
2015,07,18,03,34,12.70
2015,07,18,03,35,12.70
2015,07,18,03,36,12.70
2015,07,18,03,37,12.70
2015,07,18,03,38,12.70
2015,07,18,03,39,12.70
2015,07,18,03,40,12.70
2015,07,18,03,41,12.70
2015,07,18,03,42,12.70
2015,07,18,03,43,12.70
2015,07,18,03,44,12.70
2015,07,18,03,45,12.70
2015,07,18,03,46,12.40
2015,07,18,03,47,12.40
2015,07,18,03,48,12.40
2015,07,18,03,50,12.40
2015,07,18,03,51,12.40
2015,07,18,03,52,12.40
2015,07,18,03,53,12.40
2015,07,18,03,54,12.40
2015,07,18,03,55,12.40
2015,07,18,03,56,12.40
2015,07,18,03,57,12.40
2015,07,18,03,58,12.40
2015,07,18,03,59,12.40
2015,07,18,04,00,12.40
2015,07,18,04,01,12.40
2015,07,18,04,02,12.40
2015,07,18,04,03,12.40
2015,07,18,04,04,12.40
2015,07,18,04,05,12.40
2015,07,18,04,06,12.40
2015,07,18,04,07,12.40
2015,07,18,04,08,12.40
2015,07,18,04,09,12.40
2015,07,18,04,10,12.40
2015,07,18,04,11,12.40
2015,07,18,04,12,12.40
2015,07,18,04,13,12.40
2015,07,18,04,14,12.40
2015,07,18,04,15,12.40
2015,07,18,04,16,12.30
2015,07,18,04,17,12.30
2015,07,18,04,18,12.30
2015,07,18,04,19,12.30
2015,07,18,04,20,12.30
2015,07,18,04,21,12.30
2015,07,18,04,22,12.30
2015,07,18,04,23,12.30
2015,07,18,04,24,12.30
2015,07,18,04,25,12.30
2015,07,18,04,26,12.30
2015,07,18,04,27,12.30
2015,07,18,04,28,12.30
2015,07,18,04,29,12.30
2015,07,18,04,30,12.30
2015,07,18,04,31,12.30
2015,07,18,04,32,12.30
2015,07,18,04,33,12.30
2015,07,18,04,34,12.30
2015,07,18,04,35,12.30
2015,07,18,04,36,12.30
2015,07,18,04,37,12.30
2015,07,18,04,38,12.30
2015,07,18,04,39,12.30
2015,07,18,04,40,12.30
2015,07,18,04,41,12.30
2015,07,18,04,42,12.30
2015,07,18,04,43,12.30
2015,07,18,04,44,12.30
2015,07,18,04,45,12.30
2015,07,18,04,46,12.20
2015,07,18,04,47,12.20
2015,07,18,04,48,12.20
2015,07,18,04,49,12.20
2015,07,18,04,50,12.20
2015,07,18,04,51,12.20
2015,07,18,04,52,12.20
2015,07,18,04,53,12.20
2015,07,18,04,54,12.20
2015,07,18,04,55,12.20
2015,07,18,04,56,12.20
2015,07,18,04,57,12.20
2015,07,18,04,58,12.20
2015,07,18,04,59,12.20
2015,07,18,05,00,12.20
2015,07,18,05,01,12.20
2015,07,18,05,02,12.20
2015,07,18,05,03,12.20
2015,07,18,05,04,12.20
2015,07,18,05,05,12.20
2015,07,18,05,06,12.20
2015,07,18,05,07,12.20
2015,07,18,05,08,12.20
2015,07,18,05,09,12.20
2015,07,18,05,10,12.20
2015,07,18,05,11,12.20
2015,07,18,05,12,12.20
2015,07,18,05,13,12.20
2015,07,18,05,14,12.20
2015,07,18,05,15,12.20
2015,07,18,05,16,12.20
2015,07,18,05,17,12.20
2015,07,18,05,18,12.20
2015,07,18,05,19,12.20
2015,07,18,05,20,12.20
2015,07,18,05,21,12.20
2015,07,18,05,22,12.20
2015,07,18,05,23,12.20
2015,07,18,05,24,12.20
2015,07,18,05,25,12.20
2015,07,18,05,26,12.20
2015,07,18,05,27,12.20
2015,07,18,05,28,12.20
2015,07,18,05,29,12.20
2015,07,18,05,30,12.20
2015,07,18,05,31,12.20
2015,07,18,05,32,12.20
2015,07,18,05,33,12.20
2015,07,18,05,34,12.20
2015,07,18,05,35,12.20
2015,07,18,05,36,12.20
2015,07,18,05,37,12.20
2015,07,18,05,38,12.20
2015,07,18,05,39,12.20
2015,07,18,05,40,12.20
2015,07,18,05,41,12.20
2015,07,18,05,42,12.20
2015,07,18,05,43,12.20
2015,07,18,05,44,12.20
2015,07,18,05,45,12.20
2015,07,18,05,46,11.90
2015,07,18,05,47,11.90
2015,07,18,05,48,11.90
2015,07,18,05,49,11.90
2015,07,18,05,50,11.90
2015,07,18,05,51,11.90
2015,07,18,05,52,11.90
2015,07,18,05,53,11.90
2015,07,18,05,54,11.90
2015,07,18,05,55,11.90
2015,07,18,05,56,11.90
2015,07,18,05,57,11.90
2015,07,18,05,58,11.90
2015,07,18,05,59,11.90
2015,07,18,06,00,11.90
2015,07,18,06,01,11.90
2015,07,18,06,02,11.90
2015,07,18,06,03,11.90
2015,07,18,06,04,11.90
2015,07,18,06,05,11.90
2015,07,18,06,06,11.90
2015,07,18,06,07,11.90
2015,07,18,06,08,11.90
2015,07,18,06,09,11.90
2015,07,18,06,10,11.90
2015,07,18,06,11,11.90
2015,07,18,06,12,11.90
2015,07,18,06,13,11.90
2015,07,18,06,14,11.90
2015,07,18,06,15,11.90
2015,07,18,06,16,12.20
2015,07,18,06,17,12.20
2015,07,18,06,18,12.20
2015,07,18,06,19,12.20
2015,07,18,06,20,12.20
2015,07,18,06,21,12.20
2015,07,18,06,22,12.20
2015,07,18,06,23,12.20
2015,07,18,06,24,12.20
2015,07,18,06,25,12.20
2015,07,18,06,26,12.20
2015,07,18,06,27,12.20
2015,07,18,06,28,12.20
2015,07,18,06,29,12.20
2015,07,18,06,30,12.20
2015,07,18,06,31,12.20
2015,07,18,06,32,12.20
2015,07,18,06,33,12.20
2015,07,18,06,34,12.20
2015,07,18,06,35,12.20
2015,07,18,06,36,12.20
2015,07,18,06,37,12.20
2015,07,18,06,38,12.20
2015,07,18,06,39,12.20
2015,07,18,06,40,12.20
2015,07,18,06,41,12.20
2015,07,18,06,42,12.20
2015,07,18,06,43,12.20
2015,07,18,06,44,12.20
2015,07,18,06,45,12.20
2015,07,18,06,46,12.50
2015,07,18,06,47,12.50
2015,07,18,06,48,12.50
2015,07,18,06,49,12.50
2015,07,18,06,50,12.50
2015,07,18,06,51,12.50
2015,07,18,06,52,12.50
2015,07,18,06,53,12.50
2015,07,18,06,54,12.50
2015,07,18,06,55,12.50
2015,07,18,06,56,12.50
2015,07,18,06,57,12.50
2015,07,18,06,58,12.50
2015,07,18,06,59,12.50
2015,07,18,07,00,12.50
2015,07,18,07,01,12.50
2015,07,18,07,02,12.50
2015,07,18,07,03,12.50
2015,07,18,07,04,12.50
2015,07,18,07,05,12.50
2015,07,18,07,06,12.50
2015,07,18,07,07,12.50
2015,07,18,07,08,12.50
2015,07,18,07,09,12.50
2015,07,18,07,10,12.50
2015,07,18,07,11,12.50
2015,07,18,07,12,12.50
2015,07,18,07,13,12.50
2015,07,18,07,14,12.50
2015,07,18,07,15,12.50
2015,07,18,07,16,12.70
2015,07,18,07,17,12.70
2015,07,18,07,18,12.70
2015,07,18,07,19,12.70
2015,07,18,07,20,12.70
2015,07,18,07,21,12.70
2015,07,18,07,22,12.70
2015,07,18,07,23,12.70
2015,07,18,07,24,12.70
2015,07,18,07,25,12.70
2015,07,18,07,26,12.70
2015,07,18,07,27,12.70
2015,07,18,07,28,12.70
2015,07,18,07,29,12.70
2015,07,18,07,30,12.70
2015,07,18,07,31,12.70
2015,07,18,07,32,12.70
2015,07,18,07,33,12.70
2015,07,18,07,34,12.70
2015,07,18,07,35,12.70
2015,07,18,07,36,12.70
2015,07,18,07,37,12.70
2015,07,18,07,38,12.70
2015,07,18,07,39,12.70
2015,07,18,07,40,12.70
2015,07,18,07,41,12.70
2015,07,18,07,42,12.70
2015,07,18,07,43,12.70
2015,07,18,07,44,12.70
2015,07,18,07,45,12.70
2015,07,18,07,46,13.20
2015,07,18,07,47,13.20
2015,07,18,07,48,13.20
2015,07,18,07,49,13.20
2015,07,18,07,50,13.20
2015,07,18,07,51,13.20
2015,07,18,07,52,13.20
2015,07,18,07,53,13.20
2015,07,18,07,54,13.20
2015,07,18,07,55,13.20
2015,07,18,07,56,13.20
2015,07,18,07,57,13.20
2015,07,18,07,58,13.20
2015,07,18,07,59,13.20
2015,07,18,08,00,13.20
2015,07,18,08,01,13.20
2015,07,18,08,02,13.20
2015,07,18,08,03,13.20
2015,07,18,08,04,13.20
2015,07,18,08,05,13.20
2015,07,18,08,06,13.20
2015,07,18,08,07,13.20
2015,07,18,08,08,13.20
2015,07,18,08,09,13.20
2015,07,18,08,10,13.20
2015,07,18,08,11,13.20
2015,07,18,08,12,13.20
2015,07,18,08,13,13.20
2015,07,18,08,14,13.20
2015,07,18,08,15,13.20
2015,07,18,08,16,14.10
2015,07,18,08,17,14.10
2015,07,18,08,18,14.10
2015,07,18,08,19,14.10
2015,07,18,08,20,14.10
2015,07,18,08,21,14.10
2015,07,18,08,22,14.10
2015,07,18,08,23,14.10
2015,07,18,08,24,14.10
2015,07,18,08,25,14.10
2015,07,18,08,26,14.10
2015,07,18,08,27,14.10
2015,07,18,08,28,14.10
2015,07,18,08,29,14.10
2015,07,18,08,30,14.10
2015,07,18,08,31,14.10
2015,07,18,08,32,14.10
2015,07,18,08,33,14.10
2015,07,18,08,34,14.10
2015,07,18,08,35,14.10
2015,07,18,08,36,14.10
2015,07,18,08,37,14.10
2015,07,18,08,38,14.10
2015,07,18,08,39,14.10
2015,07,18,08,40,14.10
2015,07,18,08,41,14.10
2015,07,18,08,42,14.10
2015,07,18,08,43,14.10
2015,07,18,08,44,14.10
2015,07,18,08,45,14.10
2015,07,18,08,46,15.10
2015,07,18,08,47,15.10
2015,07,18,08,48,15.10
2015,07,18,08,49,15.10
2015,07,18,08,50,15.10
2015,07,18,08,51,15.10
2015,07,18,08,52,15.10
2015,07,18,08,53,15.10
2015,07,18,08,54,15.10
2015,07,18,08,55,15.10
2015,07,18,08,56,15.10
2015,07,18,08,57,15.10
2015,07,18,08,58,15.10
2015,07,18,08,59,15.10
2015,07,18,09,00,15.10
2015,07,18,09,01,15.10
2015,07,18,09,02,15.10
2015,07,18,09,03,15.10
2015,07,18,09,04,15.10
2015,07,18,09,05,15.10
2015,07,18,09,06,15.10
2015,07,18,09,07,15.10
2015,07,18,09,08,15.10
2015,07,18,09,09,15.10
2015,07,18,09,10,15.10
2015,07,18,09,11,15.10
2015,07,18,09,12,15.10
2015,07,18,09,13,15.10
2015,07,18,09,14,15.10
2015,07,18,09,15,15.10
2015,07,18,09,16,16.20
2015,07,18,09,17,16.20
2015,07,18,09,18,16.20
2015,07,18,09,19,16.20
2015,07,18,09,20,16.20
2015,07,18,09,21,16.20
2015,07,18,09,22,16.20
2015,07,18,09,23,16.20
2015,07,18,09,24,16.20
2015,07,18,09,25,16.20
2015,07,18,09,26,16.20
2015,07,18,09,27,16.20
2015,07,18,09,28,16.20
2015,07,18,09,29,16.20
2015,07,18,09,30,16.20
2015,07,18,09,31,16.20
2015,07,18,09,32,16.20
2015,07,18,09,33,16.20
2015,07,18,09,34,16.20
2015,07,18,09,35,16.20
2015,07,18,09,36,16.20
2015,07,18,09,37,16.20
2015,07,18,09,38,16.20
2015,07,18,09,39,16.20
2015,07,18,09,40,16.20
2015,07,18,09,41,16.20
2015,07,18,09,42,16.20
2015,07,18,09,43,16.20
2015,07,18,09,44,16.20
2015,07,18,09,45,16.20
2015,07,18,09,46,17.20
2015,07,18,09,47,17.20
2015,07,18,09,48,17.20
2015,07,18,09,49,17.20
2015,07,18,09,50,17.20
2015,07,18,09,51,17.20
2015,07,18,09,52,17.20
2015,07,18,09,53,17.20
2015,07,18,09,54,17.20
2015,07,18,09,55,17.20
2015,07,18,09,56,17.20
2015,07,18,09,57,17.20
2015,07,18,09,58,17.20
2015,07,18,09,59,17.20
2015,07,18,10,00,17.20
2015,07,18,10,01,17.20
2015,07,18,10,02,17.20
2015,07,18,10,03,17.20
2015,07,18,10,04,17.20
2015,07,18,10,05,17.20
2015,07,18,10,06,17.20
2015,07,18,10,07,17.20
2015,07,18,10,08,17.20
2015,07,18,10,09,17.20
2015,07,18,10,10,17.20
2015,07,18,10,11,17.20
2015,07,18,10,12,17.20
2015,07,18,10,13,17.20
2015,07,18,10,14,17.20
2015,07,18,10,15,17.20
2015,07,18,10,16,17.70
2015,07,18,10,17,17.70
2015,07,18,10,18,17.70
2015,07,18,10,19,17.70
2015,07,18,10,20,17.70
2015,07,18,10,21,17.70
2015,07,18,10,22,17.70
2015,07,18,10,23,17.70
2015,07,18,10,24,17.70
2015,07,18,10,25,17.70
2015,07,18,10,26,17.70
2015,07,18,10,27,17.70
2015,07,18,10,28,17.70
2015,07,18,10,29,17.70
2015,07,18,10,30,17.70
2015,07,18,10,31,17.70
2015,07,18,10,32,17.70
2015,07,18,10,33,17.70
2015,07,18,10,34,17.70
2015,07,18,10,35,17.70
2015,07,18,10,36,17.70
2015,07,18,10,37,17.70
2015,07,18,10,38,17.70
2015,07,18,10,39,17.70
2015,07,18,10,40,17.70
2015,07,18,10,41,17.70
2015,07,18,10,42,17.70
2015,07,18,10,43,17.70
2015,07,18,10,44,17.70
2015,07,18,10,45,17.70
2015,07,18,10,46,17.80
2015,07,18,10,47,17.80
2015,07,18,10,48,17.80
2015,07,18,10,49,17.80
2015,07,18,10,50,17.80
2015,07,18,10,51,17.80
2015,07,18,10,52,17.80
2015,07,18,10,53,17.80
2015,07,18,10,54,17.80
2015,07,18,10,55,17.80
2015,07,18,10,56,17.80
2015,07,18,10,57,17.80
2015,07,18,10,58,17.80
2015,07,18,10,59,17.80
2015,07,18,11,00,17.80
2015,07,18,11,01,17.80
2015,07,18,11,02,17.80
2015,07,18,11,03,17.80
2015,07,18,11,04,17.80
2015,07,18,11,05,17.80
2015,07,18,11,06,17.80
2015,07,18,11,07,17.80
2015,07,18,11,08,17.80
2015,07,18,11,09,17.80
2015,07,18,11,10,17.80
2015,07,18,11,11,17.80
2015,07,18,11,12,17.80
2015,07,18,11,13,17.80
2015,07,18,11,14,17.80
2015,07,18,11,15,17.80
2015,07,18,11,16,17.70
2015,07,18,11,17,17.70
2015,07,18,11,18,17.70
2015,07,18,11,19,17.70
2015,07,18,11,20,17.70
2015,07,18,11,21,17.70
2015,07,18,11,22,17.70
2015,07,18,11,23,17.70
2015,07,18,11,24,17.70
2015,07,18,11,25,17.70
2015,07,18,11,26,17.70
2015,07,18,11,27,17.70
2015,07,18,11,28,17.70
2015,07,18,11,29,17.70
2015,07,18,11,30,17.70
2015,07,18,11,31,17.70
2015,07,18,11,32,17.70
2015,07,18,11,33,17.70
2015,07,18,11,34,17.70
2015,07,18,11,35,17.70
2015,07,18,11,36,17.70
2015,07,18,11,37,17.70
2015,07,18,11,38,17.70
2015,07,18,11,39,17.70
2015,07,18,11,40,17.70
2015,07,18,11,41,17.70
2015,07,18,11,42,17.70
2015,07,18,11,43,17.70
2015,07,18,11,44,17.70
2015,07,18,11,45,17.70
2015,07,18,11,46,18.20
2015,07,18,11,47,18.20
2015,07,18,11,48,18.20
2015,07,18,11,49,18.20
2015,07,18,11,50,18.20
2015,07,18,11,51,18.20
2015,07,18,11,52,18.20
2015,07,18,11,53,18.20
2015,07,18,11,54,18.20
2015,07,18,11,55,18.20
2015,07,18,11,56,18.20
2015,07,18,11,57,18.20
2015,07,18,11,58,18.20
2015,07,18,11,59,18.20
2015,07,18,12,00,18.20
2015,07,18,12,01,18.20
2015,07,18,12,02,18.20
2015,07,18,12,03,18.20
2015,07,18,12,04,18.20
2015,07,18,12,05,18.20
2015,07,18,12,06,18.20
2015,07,18,12,07,18.20
2015,07,18,12,08,18.20
2015,07,18,12,09,18.20
2015,07,18,12,10,18.20
2015,07,18,12,11,18.20
2015,07,18,12,12,18.20
2015,07,18,12,13,18.20
2015,07,18,12,14,18.20
2015,07,18,12,15,18.20
2015,07,18,12,16,18.70
2015,07,18,12,17,18.70
2015,07,18,12,18,18.70
2015,07,18,12,19,18.70
2015,07,18,12,20,18.70
2015,07,18,12,21,18.70
2015,07,18,12,22,18.70
2015,07,18,12,23,18.70
2015,07,18,12,24,18.70
2015,07,18,12,25,18.70
2015,07,18,12,26,18.70
2015,07,18,12,27,18.70
2015,07,18,12,28,18.70
2015,07,18,12,29,18.70
2015,07,18,12,30,18.70
2015,07,18,12,31,18.70
2015,07,18,12,32,18.70
2015,07,18,12,33,18.70
2015,07,18,12,34,18.70
2015,07,18,12,35,18.70
2015,07,18,12,36,18.70
2015,07,18,12,37,18.70
2015,07,18,12,38,18.70
2015,07,18,12,39,18.70
2015,07,18,12,40,18.70
2015,07,18,12,41,18.70
2015,07,18,12,42,18.70
2015,07,18,12,43,18.70
2015,07,18,12,44,18.70
2015,07,18,12,45,18.70
2015,07,18,12,46,19.50
2015,07,18,12,47,19.50
2015,07,18,12,48,19.50
2015,07,18,12,49,19.50
2015,07,18,12,50,19.50
2015,07,18,12,51,19.50
2015,07,18,12,52,19.50
2015,07,18,12,53,19.50
2015,07,18,12,54,19.50
2015,07,18,12,55,19.50
2015,07,18,12,56,19.50
2015,07,18,12,57,19.50
2015,07,18,12,58,19.50
2015,07,18,12,59,19.50
2015,07,18,13,00,19.50
2015,07,18,13,01,19.50
2015,07,18,13,02,19.50
2015,07,18,13,03,19.50
2015,07,18,13,04,19.50
2015,07,18,13,05,19.50
2015,07,18,13,06,19.50
2015,07,18,13,07,19.50
2015,07,18,13,08,19.50
2015,07,18,13,09,19.50
2015,07,18,13,10,19.50
2015,07,18,13,11,19.50
2015,07,18,13,12,19.50
2015,07,18,13,13,19.50
2015,07,18,13,14,19.50
2015,07,18,13,15,19.50
2015,07,18,13,16,19.90
2015,07,18,13,17,19.90
2015,07,18,13,18,19.90
2015,07,18,13,19,19.90
2015,07,18,13,20,19.90
2015,07,18,13,21,19.90
2015,07,18,13,22,19.90
2015,07,18,13,23,19.90
2015,07,18,13,24,19.90
2015,07,18,13,25,19.90
2015,07,18,13,26,19.90
2015,07,18,13,27,19.90
2015,07,18,13,28,19.90
2015,07,18,13,29,19.90
2015,07,18,13,30,19.90
2015,07,18,13,31,19.90
2015,07,18,13,32,19.90
2015,07,18,13,33,19.90
2015,07,18,13,34,19.90
2015,07,18,13,35,19.90
2015,07,18,13,36,19.90
2015,07,18,13,37,19.90
2015,07,18,13,38,19.90
2015,07,18,13,39,19.90
2015,07,18,13,40,19.90
2015,07,18,13,41,19.90
2015,07,18,13,42,19.90
2015,07,18,13,43,19.90
2015,07,18,13,44,19.90
2015,07,18,13,45,19.90
2015,07,18,13,46,19.90
2015,07,18,13,47,19.90
2015,07,18,13,48,19.90
2015,07,18,13,49,19.90
2015,07,18,13,50,19.90
2015,07,18,13,51,19.90
2015,07,18,13,52,19.90
2015,07,18,13,53,19.90
2015,07,18,13,54,19.90
2015,07,18,13,55,19.90
2015,07,18,13,56,19.90
2015,07,18,13,57,19.90
2015,07,18,13,58,19.90
2015,07,18,13,59,19.90
2015,07,18,14,00,19.90
2015,07,18,14,01,19.90
2015,07,18,14,02,19.90
2015,07,18,14,03,19.90
2015,07,18,14,04,19.90
2015,07,18,14,05,19.90
2015,07,18,14,06,19.90
2015,07,18,14,07,19.90
2015,07,18,14,08,19.90
2015,07,18,14,09,19.90
2015,07,18,14,10,19.90
2015,07,18,14,11,19.90
2015,07,18,14,12,19.90
2015,07,18,14,13,19.90
2015,07,18,14,14,19.90
2015,07,18,14,15,19.90
2015,07,18,14,16,19.40
2015,07,18,14,17,19.40
2015,07,18,14,18,19.40
2015,07,18,14,19,19.40
2015,07,18,14,20,19.40
2015,07,18,14,21,19.40
2015,07,18,14,22,19.40
2015,07,18,14,23,19.40
2015,07,18,14,24,19.40
2015,07,18,14,25,19.40
2015,07,18,14,26,19.40
2015,07,18,14,27,19.40
2015,07,18,14,28,19.40
2015,07,18,14,29,19.40
2015,07,18,14,30,19.40
2015,07,18,14,31,19.40
2015,07,18,14,32,19.40
2015,07,18,14,33,19.40
2015,07,18,14,34,19.40
2015,07,18,14,35,19.40
2015,07,18,14,36,19.40
2015,07,18,14,37,19.40
2015,07,18,14,38,19.40
2015,07,18,14,39,19.40
2015,07,18,14,40,19.40
2015,07,18,14,41,19.40
2015,07,18,14,42,19.40
2015,07,18,14,43,19.40
2015,07,18,14,44,19.40
2015,07,18,14,45,19.40
2015,07,18,14,46,18.80
2015,07,18,14,47,18.80
2015,07,18,14,48,18.80
2015,07,18,14,49,18.80
2015,07,18,14,50,18.80
2015,07,18,14,51,18.80
2015,07,18,14,52,18.80
2015,07,18,14,53,18.80
2015,07,18,14,54,18.80
2015,07,18,14,55,18.80
2015,07,18,14,56,18.80
2015,07,18,14,57,18.80
2015,07,18,14,58,18.80
2015,07,18,14,59,18.80
2015,07,18,15,00,18.80
2015,07,18,15,01,18.80
2015,07,18,15,02,18.80
2015,07,18,15,03,18.80
2015,07,18,15,04,18.80
2015,07,18,15,05,18.80
2015,07,18,15,06,18.80
2015,07,18,15,07,18.80
2015,07,18,15,08,18.80
2015,07,18,15,09,18.80
2015,07,18,15,10,18.80
2015,07,18,15,11,18.80
2015,07,18,15,12,18.80
2015,07,18,15,13,18.80
2015,07,18,15,14,18.80
2015,07,18,15,15,18.80
2015,07,18,15,16,19.20
2015,07,18,15,17,19.20
2015,07,18,15,18,19.20
2015,07,18,15,19,19.20
2015,07,18,15,20,19.20
2015,07,18,15,21,19.20
2015,07,18,15,22,19.20
2015,07,18,15,23,19.20
2015,07,18,15,24,19.20
2015,07,18,15,25,19.20
2015,07,18,15,26,19.20
2015,07,18,15,27,19.20
2015,07,18,15,28,19.20
2015,07,18,15,29,19.20
2015,07,18,15,30,19.20
2015,07,18,15,31,19.20
2015,07,18,15,32,19.20
2015,07,18,15,33,19.20
2015,07,18,15,34,19.20
2015,07,18,15,35,19.20
2015,07,18,15,36,19.20
2015,07,18,15,37,19.20
2015,07,18,15,38,19.20
2015,07,18,15,39,19.20
2015,07,18,15,40,19.20
2015,07,18,15,41,19.20
2015,07,18,15,42,19.20
2015,07,18,15,43,19.20
2015,07,18,15,44,19.20
2015,07,18,15,45,19.20
2015,07,18,15,46,21.10
2015,07,18,15,47,21.10
2015,07,18,15,48,21.10
2015,07,18,15,49,21.10
2015,07,18,15,50,21.10
2015,07,18,15,51,21.10
2015,07,18,15,52,21.10
2015,07,18,15,53,21.10
2015,07,18,15,54,21.10
2015,07,18,15,55,21.10
2015,07,18,15,56,21.10
2015,07,18,15,57,21.10
2015,07,18,15,58,21.10
2015,07,18,15,59,21.10
2015,07,18,16,00,21.10
2015,07,18,16,01,21.10
2015,07,18,16,02,21.10
2015,07,18,16,03,21.10
2015,07,18,16,04,21.10
2015,07,18,16,05,21.10
2015,07,18,16,06,21.10
2015,07,18,16,07,21.10
2015,07,18,16,08,21.10
2015,07,18,16,09,21.10
2015,07,18,16,10,21.10
2015,07,18,16,11,21.10
2015,07,18,16,12,21.10
2015,07,18,16,13,21.10
2015,07,18,16,14,21.10
2015,07,18,16,15,21.10
2015,07,18,16,16,20.50
2015,07,18,16,17,20.50
2015,07,18,16,18,20.50
2015,07,18,16,19,20.50
2015,07,18,16,20,20.50
2015,07,18,16,21,20.50
2015,07,18,16,22,20.50
2015,07,18,16,23,20.50
2015,07,18,16,24,20.50
2015,07,18,16,25,20.50
2015,07,18,16,26,20.50
2015,07,18,16,27,20.50
2015,07,18,16,28,20.50
2015,07,18,16,29,20.50
2015,07,18,16,30,20.50
2015,07,18,16,31,20.50
2015,07,18,16,32,20.50
2015,07,18,16,33,20.50
2015,07,18,16,34,20.50
2015,07,18,16,35,20.50
2015,07,18,16,36,20.50
2015,07,18,16,37,20.50
2015,07,18,16,38,20.50
2015,07,18,16,39,20.50
2015,07,18,16,40,20.50
2015,07,18,16,41,20.50
2015,07,18,16,42,20.50
2015,07,18,16,43,20.50
2015,07,18,16,44,20.50
2015,07,18,16,45,20.50
2015,07,18,16,46,22.10
2015,07,18,16,47,22.10
2015,07,18,16,48,22.10
2015,07,18,16,49,22.10
2015,07,18,16,50,22.10
2015,07,18,16,51,22.10
2015,07,18,16,52,22.10
2015,07,18,16,53,22.10
2015,07,18,16,54,22.10
2015,07,18,16,55,22.10
2015,07,18,16,56,22.10
2015,07,18,16,57,22.10
2015,07,18,16,58,22.10
2015,07,18,16,59,22.10
2015,07,18,17,00,22.10
2015,07,18,17,01,22.10
2015,07,18,17,02,22.10
2015,07,18,17,03,22.10
2015,07,18,17,04,22.10
2015,07,18,17,05,22.10
2015,07,18,17,06,22.10
2015,07,18,17,07,22.10
2015,07,18,17,08,22.10
2015,07,18,17,09,22.10
2015,07,18,17,10,22.10
2015,07,18,17,11,22.10
2015,07,18,17,12,22.10
2015,07,18,17,13,22.10
2015,07,18,17,14,22.10
2015,07,18,17,15,22.10
2015,07,18,17,16,19.30
2015,07,18,17,17,19.30
2015,07,18,17,18,19.30
2015,07,18,17,19,19.30
2015,07,18,17,20,19.30
2015,07,18,17,21,19.30
2015,07,18,17,22,19.30
2015,07,18,17,23,19.30
2015,07,18,17,24,19.30
2015,07,18,17,25,19.30
2015,07,18,17,26,19.30
2015,07,18,17,27,19.30
2015,07,18,17,28,19.30
2015,07,18,17,29,19.30
2015,07,18,17,30,19.30
2015,07,18,17,31,19.30
2015,07,18,17,32,19.30
2015,07,18,17,33,19.30
2015,07,18,17,34,19.30
2015,07,18,17,35,19.30
2015,07,18,17,36,19.30
2015,07,18,17,37,19.30
2015,07,18,17,38,19.30
2015,07,18,17,39,19.30
2015,07,18,17,40,19.30
2015,07,18,17,41,19.30
2015,07,18,17,42,19.30
2015,07,18,17,43,19.30
2015,07,18,17,44,19.30
2015,07,18,17,45,19.30
2015,07,18,17,46,17.70
2015,07,18,17,47,17.70
2015,07,18,17,48,17.70
2015,07,18,17,49,17.70
2015,07,18,17,50,17.70
2015,07,18,17,51,17.70
2015,07,18,17,52,17.70
2015,07,18,17,53,17.70
2015,07,18,17,54,17.70
2015,07,18,17,55,17.70
2015,07,18,17,56,17.70
2015,07,18,17,57,17.70
2015,07,18,17,58,17.70
2015,07,18,17,59,17.70
2015,07,18,18,00,17.70
2015,07,18,18,01,17.70
2015,07,18,18,02,17.70
2015,07,18,18,03,17.70
2015,07,18,18,04,17.70
2015,07,18,18,05,17.70
2015,07,18,18,06,17.70
2015,07,18,18,07,17.70
2015,07,18,18,08,17.70
2015,07,18,18,09,17.70
2015,07,18,18,10,17.70
2015,07,18,18,11,17.70
2015,07,18,18,12,17.70
2015,07,18,18,13,17.70
2015,07,18,18,14,17.70
2015,07,18,18,15,17.70
2015,07,18,18,16,15.70
2015,07,18,18,17,15.70
2015,07,18,18,18,15.70
2015,07,18,18,19,15.70
2015,07,18,18,20,15.70
2015,07,18,18,21,15.70
2015,07,18,18,22,15.70
2015,07,18,18,23,15.70
2015,07,18,18,24,15.70
2015,07,18,18,25,15.70
2015,07,18,18,26,15.70
2015,07,18,18,27,15.70
2015,07,18,18,28,15.70
2015,07,18,18,29,15.70
2015,07,18,18,30,15.70
2015,07,18,18,31,15.70
2015,07,18,18,32,15.70
2015,07,18,18,33,15.70
2015,07,18,18,34,15.70
2015,07,18,18,35,15.70
2015,07,18,18,36,15.70